Overview Statistics Trail Chart Weather Telemetry Raw packets
 

This is the latest recevied weather packets stored in our database for station/object SV9TNF-57. If no packets are shown the sender has not sent any weather packets the latest 10 day(s).

<< 71 72 73 74 75 76 77 >>
Time Temp. Humidity Pressure Rain* Wind** Luminosity Snow
1788154959 27.78° C 45% 996.1 hPa 0 mm 0.89 m/s, 318° - -
1788154659 27.78° C 46% 996.1 hPa 0 mm 1.79 m/s, 331° - -
1788154359 27.22° C 46% 996.2 hPa 0 mm 0.45 m/s, 308° - -
1788154059 27.22° C 47% 996.1 hPa 0 mm 1.34 m/s, 314° - -
1788153759 26.67° C 47% 996.2 hPa 0 mm 1.34 m/s, 354° - -
1788153459 26.67° C 48% 996.1 hPa 0 mm 0.45 m/s, 298° - -
1788153159 26.67° C 49% 996.3 hPa 0 mm 0.89 m/s, 330° - -
1788152858 26.11° C 50% 996.2 hPa 0 mm 0 m/s - -
1788152559 26.11° C 50% 995.9 hPa 0 mm 0.89 m/s, 309° - -
1788152258 25.56° C 50% 996.2 hPa 0 mm 0 m/s - -
1788151958 25.56° C 51% 996 hPa 0 mm 0.45 m/s, 295° - -
1788151658 25.56° C 51% 996.1 hPa 0 mm 0.89 m/s, 322° - -
1788151358 25° C 52% 996.2 hPa 0 mm 2.24 m/s, 296° - -
1788151058 25° C 53% 995.9 hPa 0 mm 0.89 m/s, 295° - -
1788150758 25° C 52% 995.8 hPa 0 mm 0.45 m/s, 320° - -
1788150458 25° C 52% 995.8 hPa 0 mm 0.45 m/s, 278° - -
1788150157 25° C 52% 995.6 hPa 0 mm 0.89 m/s, 277° - -
1788149857 24.44° C 52% 995.8 hPa 0 mm 4.02 m/s, 281° - -
1788149557 24.44° C 53% 995.6 hPa 0 mm 0.45 m/s, 322° - -
1788149257 24.44° C 52% 995.5 hPa 0 mm 0.45 m/s, 303° - -
1788148957 24.44° C 52% 995.7 hPa 0 mm 0.45 m/s, 265° - -
1788148657 24.44° C 52% 995.5 hPa 0 mm 3.58 m/s, 340° - -
1788148357 24.44° C 52% 995.5 hPa 0 mm 1.34 m/s, 275° - -
1788148057 24.44° C 52% 995.4 hPa 0 mm 4.02 m/s, 289° - -
1788147757 25° C 51% 995.4 hPa 0 mm 2.24 m/s, 288° - -

* Rain latest hour (hover to see other rain measurements)
** Current wind speed in m/s (hover to see current wind gust speed)